Regional Weather Roundup
Issued by NWS

Home | Current Version | Previous Version | Text Only | Print | Product List | Glossary On
Versions: 1 2 3 4 5 6 7 8 9 10 11 12 13 14 15 16 17 18 19 20 21 22 23 24 25 26 27 28 29 30 31 32 33 34 35 36 37 38 39 40 41 42 43 44 45 46 47 48 49 50
000
ASUS43 KDTX 011010
RWRMI
MICHIGAN HOURLY REGIONAL WEATHER ROUNDUP
NATIONAL WEATHER SERVICE DETROIT/PONTIAC MI
600 AM EDT SAT OCT 01 2016

NOTE: "FAIR" INDICATES FEW OR NO CLOUDS BELOW 12,000 FEET WITH NO
SIGNIFICANT WEATHER AND/OR OBSTRUCTION TO VISIBILITY.

MIZ047>049-052>055-059>063-066>070-074>076-081>083-011100-
SOUTHEAST LOWER MICHIGAN

CITY           SKY/WX    TMP DP  RH WIND       PRES   REMARKS
ADRIAN         CLOUDY    58  58 100 E5        30.04R
ALMA           CLOUDY    58  58 100 NE8       30.09F FOG
ANN ARBOR      CLOUDY    57  57 100 NE7       30.04S FOG
BAD AXE        RAIN      56  56  99 E7        30.12F
CARO           CLOUDY    56  56  97 E3        30.10S FOG
DETROIT CITY   CLOUDY    59  59 100 E8        30.06S
DETROIT        LGT RAIN  60  60 100 E8        30.05S FOG
FLINT          RAIN      56  55  97 NE8       30.06F FOG
GROSSE ILE     CLOUDY    60  59  96 E3        30.04S
HILLSDALE      CLOUDY    57  55  94 E6        30.03R FOG
HOWELL         LGT RAIN  56  56  98 NE6       30.05F

CITY           SKY/WX    TMP DP  RH WIND       PRES   REMARKS
JACKSON        LGT RAIN  57  57 100 NE7       30.04S
LAMBERTVILLE   CLOUDY    61  59  93 SE5       30.04R
LANSING        RAIN      56  54  93 NE8       30.06F FOG
LAPEER         CLOUDY    56  55  97 E6        30.08F
MASON          RAIN      56  55  97 NE6       30.05F
MONROE         DRIZZLE   61  60  96 SE8       30.04R
MT. CLEMENS    CLOUDY    57  57 100 E14       30.05F
PONTIAC        CLOUDY    56  55  97 E9        30.05F
PORT HURON     CLOUDY    55  55 100 E9        30.10S FOG
TRI CITIES     CLOUDY    57  57 100 E10       30.11S
MIDLAND        CLOUDY    57  57  98 E7        30.10S FOG
TROY           DRIZZLE   58  56  94 E7        30.08S
SAGINAW HB     CLOUDY    55  55 100 E8        30.09S FOG
$$
MIZ043>046-050>051-056>058-064>065-071>073-077>080-011100-
SOUTHWEST LOWER MICHIGAN

CITY           SKY/WX    TMP DP  RH WIND       PRES   REMARKS
BATTLE CREEK   HVY RAIN  57  57 100 NE7       30.03F FOG
BENTON HARBOR  LGT RAIN  61  58  90 NE6       30.01F
BIG RAPIDS     CLOUDY    56  55  97 E6        30.09F FOG
COLDWATER      CLOUDY    59  58  98 E7        30.02S
FREMONT        CLOUDY    56  55  98 E9        30.08S
HOLLAND        CLOUDY    59  56  89 NE7       30.05F
GRAND RAPIDS   LGT RAIN  57  55  93 NE10      30.06S
IONIA          CLOUDY    55  55  97 NE8       30.05F FOG
KALAMAZOO      LGT RAIN  59  56  89 NE6       30.03F FOG
LUDINGTON      CLOUDY    55  55  99 NE3       30.10F
MARSHALL       CLOUDY    57  56  98 NE7       30.02S
MOUNT PLEASANT CLOUDY    57  56  97 NE7       30.09F FOG
MUSKEGON       CLOUDY    59  56  89 NE5       30.07F
SOUTH HAVEN    CLOUDY    61  60  96 NE8       30.02S
$$
MIZ016>042-011100-
NORTHERN LOWER MICHIGAN

CITY           SKY/WX    TMP DP  RH WIND       PRES   REMARKS
ALPENA         CLOUDY    60  52  74 E7        30.17F
BEAVER ISLAND  DRIZZLE   59  56  88 E9        30.19S
BELLAIRE       CLOUDY    59  55  85 NE7       30.15F
CADILLAC       CLOUDY    54  53  97 E6        30.12F FOG
CHARLEVOIX     MOCLDY    60  55  81 E10G17    30.20R
FRANKFORT      CLOUDY    59  55  86 E3        30.13F
GAYLORD        CLOUDY    57  52  83 NE8       30.16S
GRAYLING       CLOUDY    57  53  86 E7        30.16R
HARBOR SPRINGS CLOUDY    59  54  84 NE10      30.18S
HOUGHTON LAKE  CLOUDY    54  53  97 NE7       30.14F FOG
MANISTEE       CLOUDY    57  55  93 E8        30.11F
OSCODA         CLOUDY    59  55  87 E6        30.15S
PELLSTON       PTCLDY    59  53  80 E6        30.19S
ROGERS CITY    MOCLDY    57  53  86 E7        30.19F
TRAVERSE CITY  CLOUDY    60  56  86 NE7       30.12F
$$
MIZ007>008-015-011100-
EASTERN UPPER MICHIGAN

CITY           SKY/WX    TMP DP  RH WIND       PRES   REMARKS
KINROSS        CLOUDY    56  48  74 NE7       30.22F
MACKINAC ISLAN CLOUDY    60  53  78 E10G17    30.20S
NEWBERRY       CLOUDY    53  48  84 NE3       30.21F
S. S. MARIE    CLOUDY    58  47  66 E7        30.22F
MUNISING         N/A     57  49  74 S3        30.21F
$$
MIZ004>006-011>014-085-011100-
CENTRAL UPPER MICHIGAN

CITY           SKY/WX    TMP DP  RH WIND       PRES   REMARKS
MANISTIQUE     LGT RAIN  54  51  90 N7        30.20S
ESCANABA       MOCLDY    57  55  93 NE7       30.18F
MENOMINEE      CLOUDY    59  55  87 NE7       30.16S
SAWYER-GWINN   CLOUDY    55  49  80 NE5       30.22S
$$
MIZ001>003-009>011-084-011100-
WESTERN UPPER MICHIGAN

CITY           SKY/WX    TMP DP  RH WIND       PRES   REMARKS
IRON MOUNTAIN  MOCLDY    56  50  80 CALM      30.19S
HOUGHTON       CLOUDY    57  53  86 NE5       30.23S
COPPER HARBOR    N/A     54  53  97 CALM      30.23F
IRONWOOD       PTCLDY    45  45 100 CALM      30.23S FOG
$$

ABBREVIATIONS USED IN REMARKS
   TC - TEMPERATURE IN CELSIUS
  WCI - WIND CHILL INDEX
   HX - HEAT INDEX
  VSB - VISIBILITY




USA.gov is the U.S. government's official web portal to all federal, state and local government web resources and services.